{"data":{"norad_id":64016,"epoch":"2026-09-20T21:41:20.075712Z","epoch_age_seconds":108674,"freshness":"FRESH","line1":"1 64016U 25101Y   26263.90370458  .00008309  00000+0  31106-3 0  9994","line2":"2 64016  43.0016 335.2374 0001508 269.5011  90.5668 15.27587214 76917","mean_motion":15.27587214,"eccentricity":0.0001508,"inclination_deg":43.0016,"raan_deg":335.2374,"arg_perigee_deg":269.5011,"mean_anomaly_deg":90.5668,"bstar":0.00031106,"rev_number":7691,"period_min":94.26630354082,"perigee_km":481.99283120762,"apogee_km":484.06215841926,"semimajor_km":6861.1644948134,"source":"CELESTRAK","updated_at":"2026-09-21T09:00:35.184400Z"}}